SCP
8 8 6 5 4 7 6 6 6 6 5 5 5 5 5 4 2 1 1 0 0 0 0 0 0 0 0 0 0 0 0 0 0 0 0 0 0 0 0 0 0 0 0
11 8 7 6 5 5 6 3 1 5 6 6 6 7 6 6 2 1 0 0 0 0 0 0 0 0 0 0 0 0 0 0 0 0 0 0 0 0 0 0 0 0 0
12 9 7 5 6 5 2 0 0 0 0 0 0 1 6 3 1 0 0 0 0 0 0 0 0 0 0 0 0 0 0 0 0 0 0 0 0 0 0 0 0 0 0
3 6 5 5 6 3 1 0 0 0 0 0 0 1 2 1 1 0 0 0 0 0 0 0 0 0 0 0 0 0 0 0 0 0 0 0 0 0 0 0 0 0 0
0 1 4 4 4 1 1 0 0 0 0 0 0 0 0 0 0 0 0 0 0 0 0 0 0 0 0 0 0 0 0 0 0 0 0 0 0 0 0 0 0 0 0
0 0 0 4 4 1 1 0 1 0 0 0 0 0 0 0 0 0 0 0 0 0 0 0 0 0 0 0 0 0 0 0 0 0 0 0 0 0 0 0 0 0 0
0 0 0 2 3 2 1 0 0 0 0 0 0 0 0 0 0 0 0 -0 0 0 0 0 0 0 0 0 0 0 0 0 0 0 0 0 0 0 0 0 0 0 0
0 0 0 2 2 2 0 0 0 0 0 0 0 0 0 0 0 -0 -0 -0 0 0 0 0 0 0 0 0 0 0 0 0 0 0 0 0 0 0 0 0 0 0 0
0 0 0 1 3 2 0 0 0 0 0 0 0 0 0 0 -0 0 -0 0 0 0 0 0 0 0 0 0 0 0 0 0 0 0 0 0 0 0 0 0 0 0 0
0 0 1 1 3 2 1 0 0 0 0 0 0 0 0 0 0 -0 -0 0 0 0 0 0 0 0 0 0 0 0 0 0 0 0 0 0 0 -0 0 0 0 0 0
0 1 0 0 0 0 0 0 0 0 0 0 0 0 0 0 0 -0 0 0 0 0 0 0 0 0 0 0 0 0 0 0 0 0 0 0 0 0 0 0 0 0 0
0 1 0 0 0 0 0 0 0 0 0 0 0 0 0 0 0 0 0 0 0 0 0 0 0 0 0 0 0 0 0 0 0 0 0 0 0 0 0 0 0 0 0
0 0 0 0 0 0 0 0 0 0 0 0 0 0 0 0 0 0 0 0 0 0 0 0 0 0 0 0 0 0 0 0 0 0 0 0 0 0 0 0 0 0 0
0 0 0 0 0 0 0 0 0 0 0 0 0 0 0 0 0 0 0 0 0 0 0 0 0 0 0 0 0 0 0 0 0 0 0 0 0 0 0 0 0 0 0
0 0 0 0 0 0 0 0 0 0 0 0 0 0 0 0 0 0 0 0 0 0 0 0 0 0 0 0 0 0 0 0 0 0 0 0 0 0 0 0 0 0 0
0 0 0 0 0 0 0 0 -0 0 0 0 0 0 0 0 0 0 0 0 0 0 0 0 0 0 0 0 0 0 0 0 0 0 0 0 0 0 0 0 0 0 0
0 0 0 0 0 0 0 0 0 0 0 0 0 0 0 0 0 0 0 0 0 0 0 0 0 0 0 0 0 0 0 0 0 0 0 0 0 0 0 0 0 0 0
0 0 0 0 0 0 0 0 0 0 0 0 0 0 0 0 0 0 0 0 0 0 0 0 0 0 0 0 0 0 0 0 0 0 0 0 0 0 0 0 0 0 0
-0 0 0 0 0 0 0 0 0 0 0 0 0 0 0 0 0 0 0 0 0 0 0 0 0 0 0 0 0 0 0 0 0 0 0 0 0 0 0 0 0 0 0
0 0 0 0 0 0 0 0 0 0 0 0 0 0 0 0 0 0 0 0 0 0 0 0 0 0 0 0 0 0 0 0 0 0 0 0 0 0 0 0 0 0 0
0 0 0 0 0 0 0 0 0 0 0 0 0 0 0 0 0 0 0 0 0 0 0 0 0 0 0 0 0 0 0 0 0 0 0 0 0 0 0 0 0 0 0
0 0 0 0 0 0 0 0 0 0 0 0 0 0 0 0 0 0 0 0 0 0 0 0 0 0 0 0 0 0 0 0 0 0 0 0 0 0 0 0 0 0 0
0 0 0 0 0 0 0 0 0 0 0 0 0 0 0 0 0 0 0 0 0 0 0 0 0 0 0 0 0 0 0 0 0 0 0 0 0 0 0 0 0 0 0
-0 -0 -0 0 0 0 0 0 0 0 0 0 0 0 0 0 0 0 0 0 0 0 0 0 0 0 0 0 0 0 0 0 0 0 0 0 0 0 0 0 0 0 0
0 -0 -0 -0 -0 -0 -0 -0 -0 -0 -0 0 0 0 0 0 0 0 0 0 0 0 0 0 0 0 0 0 0 0 0 0 0 0 0 0 0 0 0 0 0 0 0
0 0 0 0 -0 -0 -0 -0 -0 -0 0 0 0 0 0 0 0 0 0 0 0 0 0 0 0 0 0 0 0 0 0 0 0 0 0 0 0 0 0 0 0 0 0
Wind_Speed_500mb
96 96 101 96 106 115 105 91 89 96 88 84 82 78 90 83 90 88 80 69 61 51 46 46 39 28 28 19 13 10 13 15 17 15 10 5 13 22 25 29 22 16 20
102 94 103 94 90 97 104 99 83 89 86 78 74 77 87 80 79 88 79 70 62 53 47 48 36 33 27 19 14 12 14 10 3 12 15 3 10 11 24 32 18 14 19
98 94 85 86 85 78 90 93 92 79 86 78 70 70 82 85 64 81 73 74 58 51 48 45 37 33 30 19 14 12 8 6 12 16 8 15 10 20 28 21 11 22 32
48 78 79 83 83 79 82 98 95 85 84 81 58 25 50 49 71 93 70 71 54 50 50 41 36 34 29 19 12 8 9 17 12 14 17 16 18 24 21 16 18 22 31
41 19 78 79 78 74 76 94 104 82 55 77 50 31 47 42 68 54 64 63 51 55 53 40 34 29 27 16 10 9 11 14 17 21 26 20 16 10 19 25 25 21 27
54 39 27 74 79 81 83 89 105 98 96 71 56 40 58 43 45 78 68 63 56 57 49 39 34 30 25 15 12 13 11 12 16 18 17 3 14 20 23 22 24 17 15
63 51 38 44 74 82 87 94 101 101 104 80 68 81 60 51 59 54 87 75 58 52 40 37 36 32 21 17 17 14 12 12 9 9 12 20 22 22 18 15 17 18 20
56 59 46 41 66 62 79 98 107 110 98 69 70 69 69 79 82 88 88 65 56 43 43 40 32 29 22 19 18 19 19 18 22 23 22 25 26 26 23 15 13 15 15
57 58 54 35 54 68 73 77 86 87 85 88 76 80 81 106 94 89 77 71 60 55 47 38 29 21 23 23 18 18 23 26 29 26 27 26 27 26 26 15 13 7 9
32 73 53 41 48 47 60 65 75 89 97 74 98 85 87 90 84 82 76 67 60 52 44 34 29 24 30 28 24 19 21 26 28 24 23 21 21 23 27 27 28 30 27
29 64 41 28 38 36 62 67 71 89 98 104 94 93 91 88 77 69 65 58 46 46 40 38 31 31 31 30 27 23 31 33 23 22 24 19 16 17 19 27 28 30 26
27 44 40 40 31 55 40 77 110 110 103 108 112 104 91 79 69 61 47 37 39 34 37 32 32 38 37 32 34 41 36 29 29 27 19 15 21 20 23 21 20 16 20
18 33 54 54 55 61 79 65 90 99 110 109 107 98 88 74 63 50 47 44 33 33 35 39 43 43 47 48 48 43 34 31 27 21 25 26 25 21 23 14 11 13 15
45 58 65 80 80 80 82 67 60 64 94 102 99 94 83 72 61 54 50 43 40 38 48 50 52 52 46 41 36 38 31 29 26 33 35 23 23 24 27 24 21 19 21
44 56 64 65 77 80 82 81 86 86 75 85 90 89 85 77 64 56 51 45 38 50 56 57 55 51 45 39 38 40 33 27 30 32 26 23 29 27 25 23 18 18 22
55 69 73 77 77 77 77 76 58 62 69 82 94 90 80 69 62 54 44 37 51 58 58 56 51 44 37 37 39 36 33 30 30 28 27 27 29 27 23 24 18 13 18
60 65 70 74 79 81 77 75 77 58 54 59 71 69 67 69 62 53 52 65 61 54 49 50 49 49 47 38 31 34 36 29 22 25 26 23 23 21 22 24 26 23 13
60 66 66 71 78 83 81 77 72 68 67 60 49 53 53 52 53 60 61 57 57 52 48 49 50 47 43 35 28 31 28 22 21 25 26 24 23 19 19 24 24 28 20
47 54 60 66 71 75 74 74 74 77 79 78 73 68 69 64 68 60 53 57 58 54 53 49 44 38 30 22 25 27 21 21 24 25 26 24 20 17 18 18 20 24 24
35 37 45 52 59 60 64 70 75 76 79 78 75 70 73 71 61 60 54 52 52 50 45 38 30 33 33 31 31 29 28 24 22 24 25 22 21 19 21 19 17 24 26
42 40 41 47 51 52 55 59 64 70 75 77 82 81 72 65 58 57 51 44 37 33 35 38 38 37 35 26 17 20 22 22 26 22 26 22 19 20 18 17 17 23 27
42 41 40 41 42 45 47 47 49 52 60 68 70 65 57 55 49 50 47 40 36 35 35 37 36 35 32 28 23 18 22 26 27 21 25 24 17 18 17 18 19 21 26
35 36 38 43 45 45 48 49 56 63 58 57 51 43 48 47 45 42 39 39 39 36 35 31 30 30 28 23 15 10 18 24 23 18 19 26 18 17 17 19 18 19 19
25 27 31 38 38 38 38 41 51 57 57 52 30 41 36 30 32 34 34 35 35 32 28 24 23 22 23 24 19 16 21 25 24 19 16 22 17 14 20 17 17 17 17
20 19 25 36 34 33 39 38 42 55 52 29 43 33 34 35 32 30 29 29 29 27 22 15 14 23 25 27 25 25 28 31 26 18 12 19 19 12 18 18 16 13 14
18 16 30 31 31 32 33 35 50 51 33 36 33 31 26 20 20 23 26 29 29 28 26 22 21 23 26 27 28 28 28 28 24 16 10 11 15 15 10 13 12 11 14
Wind_Direction_500mb
221 224 225 227 230 227 222 217 219 222 223 225 221 214 214 216 223 221 215 213 215 215 212 215 207 211 214 217 233 267 294 278 268 271 301 33 310 338 344 347 1 26 41
222 224 223 228 235 232 227 221 223 216 213 214 215 214 215 214 226 224 213 211 207 209 209 205 207 208 216 220 254 267 284 260 216 97 81 302 286 312 320 339 0 41 66
216 221 223 227 231 235 228 218 217 216 209 196 190 203 218 216 224 231 216 211 200 206 212 205 198 210 216 219 237 264 266 240 125 103 66 203 242 295 323 342 55 80 68
225 220 224 225 227 228 227 218 216 210 203 168 165 161 204 209 218 235 212 208 197 198 204 200 202 209 218 216 213 224 195 183 170 154 177 216 275 313 335 61 104 95 64
348 288 224 224 226 225 225 221 213 201 180 178 173 167 139 149 237 224 214 211 196 196 197 196 202 209 211 209 207 217 190 202 200 208 226 249 292 24 61 71 99 95 78
331 322 328 218 219 225 226 222 213 203 199 202 224 244 221 232 232 208 221 215 204 199 191 191 200 211 215 204 193 198 197 199 208 213 230 227 79 69 93 90 84 85 72
294 308 311 258 223 220 232 221 206 205 201 205 216 209 221 192 198 222 223 215 205 193 190 194 198 203 184 161 154 142 144 143 139 143 134 104 83 79 88 92 77 75 74
273 294 303 281 231 219 232 227 207 204 205 221 196 205 205 200 187 212 210 205 191 184 193 196 189 180 163 143 144 137 122 111 104 104 99 82 71 65 63 66 77 61 72
264 285 310 267 228 205 215 219 203 202 205 190 199 187 186 186 197 196 196 188 182 185 192 184 184 178 158 159 157 142 121 120 112 98 83 71 62 53 51 70 80 82 44
274 251 304 269 218 210 209 206 200 192 187 179 175 187 182 177 183 189 188 183 181 184 185 186 184 165 167 167 161 149 126 142 142 121 107 86 69 47 26 34 37 42 47
257 207 258 249 212 192 173 184 182 186 189 182 189 180 175 175 179 181 179 181 186 190 184 174 163 158 164 159 154 141 132 127 132 138 123 102 68 31 39 54 46 39 37
213 195 209 212 194 174 150 147 166 167 172 177 176 166 167 168 173 172 173 187 191 188 184 173 161 152 151 147 146 141 139 138 141 141 129 86 72 74 48 63 43 48 36
208 176 187 150 155 163 170 175 159 167 164 161 161 160 159 162 166 167 175 183 171 171 165 156 148 142 142 142 143 143 155 158 165 148 103 81 81 64 51 77 84 57 51
146 153 159 156 155 160 171 177 170 167 167 163 163 161 159 161 165 167 168 159 154 159 148 140 137 137 137 142 145 155 166 163 140 112 99 90 107 77 54 51 90 72 60
151 152 150 159 158 159 156 156 166 167 176 173 170 167 164 164 166 167 165 158 155 150 143 140 137 136 137 136 140 144 142 140 121 112 112 95 105 82 60 49 97 80 67
144 141 148 151 152 152 148 138 141 154 163 170 169 168 166 164 162 167 164 157 149 142 140 135 130 128 129 142 151 148 140 113 99 112 116 102 97 85 63 47 70 67 80
135 138 137 140 139 137 137 140 133 130 137 147 161 164 164 158 162 162 156 144 138 139 138 136 136 148 151 147 133 124 108 99 109 110 114 105 103 96 72 57 45 48 74
132 137 138 137 138 137 137 136 134 134 131 130 142 160 166 160 156 150 145 141 140 143 149 151 155 156 152 143 120 109 113 117 101 102 110 107 95 94 82 64 43 38 52
131 132 136 139 140 139 139 137 137 135 131 131 134 136 140 143 142 139 138 143 147 150 154 157 156 152 134 114 109 125 121 111 104 103 106 109 98 88 81 78 51 36 47
114 124 129 128 131 132 133 134 132 131 132 134 138 139 143 141 140 140 143 148 150 149 148 143 134 114 109 108 112 121 120 116 102 100 110 104 99 83 75 71 49 39 48
106 113 117 124 129 130 132 134 135 135 135 137 137 142 149 149 149 148 152 148 142 138 134 129 126 127 126 130 141 134 138 126 119 105 106 116 105 92 82 68 57 42 55
109 114 121 124 128 130 132 134 136 136 136 137 139 140 133 136 135 134 136 134 131 132 140 146 143 143 144 153 165 158 151 144 130 121 110 126 110 96 99 72 61 52 56
100 105 114 122 123 127 134 135 134 131 126 120 118 133 147 146 150 148 145 144 145 150 157 159 161 164 168 178 178 142 137 149 141 133 123 130 120 97 103 82 63 53 59
102 117 125 126 128 130 130 137 145 147 143 130 141 150 146 144 148 148 156 161 165 174 181 186 188 180 173 178 173 152 141 145 141 143 122 120 142 107 103 91 70 51 74
80 94 127 135 126 128 128 128 138 146 131 128 154 157 155 157 164 167 169 169 170 176 179 180 149 125 130 139 138 138 139 143 147 151 135 114 140 126 110 104 85 56 63
129 120 121 120 130 132 125 125 137 137 151 163 164 166 171 179 175 170 165 165 169 168 166 162 151 139 133 135 136 136 139 145 153 157 142 119 115 124 114 115 119 67 51
Wind_Speed_850mb
96 96 101 96 106 115 105 91 89 96 88 84 82 78 90 83 90 88 80 69 61 51 46 46 39 28 28 19 13 10 13 15 17 15 10 5 13 22 25 29 22 16 20
102 94 103 94 90 97 104 99 83 89 86 78 74 77 87 80 79 88 79 70 62 53 47 48 36 33 27 19 14 12 14 10 3 12 15 3 10 11 24 32 18 14 19
98 94 85 86 85 78 90 93 92 79 86 78 70 70 82 85 64 81 73 74 58 51 48 45 37 33 30 19 14 12 8 6 12 16 8 15 10 20 28 21 11 22 32
48 78 79 83 83 79 82 98 95 85 84 81 58 25 50 49 71 93 70 71 54 50 50 41 36 34 29 19 12 8 9 17 12 14 17 16 18 24 21 16 18 22 31
41 19 78 79 78 74 76 94 104 82 55 77 50 31 47 42 68 54 64 63 51 55 53 40 34 29 27 16 10 9 11 14 17 21 26 20 16 10 19 25 25 21 27
54 39 27 74 79 81 83 89 105 98 96 71 56 40 58 43 45 78 68 63 56 57 49 39 34 30 25 15 12 13 11 12 16 18 17 3 14 20 23 22 24 17 15
63 51 38 44 74 82 87 94 101 101 104 80 68 81 60 51 59 54 87 75 58 52 40 37 36 32 21 17 17 14 12 12 9 9 12 20 22 22 18 15 17 18 20
56 59 46 41 66 62 79 98 107 110 98 69 70 69 69 79 82 88 88 65 56 43 43 40 32 29 22 19 18 19 19 18 22 23 22 25 26 26 23 15 13 15 15
57 58 54 35 54 68 73 77 86 87 85 88 76 80 81 106 94 89 77 71 60 55 47 38 29 21 23 23 18 18 23 26 29 26 27 26 27 26 26 15 13 7 9
32 73 53 41 48 47 60 65 75 89 97 74 98 85 87 90 84 82 76 67 60 52 44 34 29 24 30 28 24 19 21 26 28 24 23 21 21 23 27 27 28 30 27
29 64 41 28 38 36 62 67 71 89 98 104 94 93 91 88 77 69 65 58 46 46 40 38 31 31 31 30 27 23 31 33 23 22 24 19 16 17 19 27 28 30 26
27 44 40 40 31 55 40 77 110 110 103 108 112 104 91 79 69 61 47 37 39 34 37 32 32 38 37 32 34 41 36 29 29 27 19 15 21 20 23 21 20 16 20
18 33 54 54 55 61 79 65 90 99 110 109 107 98 88 74 63 50 47 44 33 33 35 39 43 43 47 48 48 43 34 31 27 21 25 26 25 21 23 14 11 13 15
45 58 65 80 80 80 82 67 60 64 94 102 99 94 83 72 61 54 50 43 40 38 48 50 52 52 46 41 36 38 31 29 26 33 35 23 23 24 27 24 21 19 21
44 56 64 65 77 80 82 81 86 86 75 85 90 89 85 77 64 56 51 45 38 50 56 57 55 51 45 39 38 40 33 27 30 32 26 23 29 27 25 23 18 18 22
55 69 73 77 77 77 77 76 58 62 69 82 94 90 80 69 62 54 44 37 51 58 58 56 51 44 37 37 39 36 33 30 30 28 27 27 29 27 23 24 18 13 18
60 65 70 74 79 81 77 75 77 58 54 59 71 69 67 69 62 53 52 65 61 54 49 50 49 49 47 38 31 34 36 29 22 25 26 23 23 21 22 24 26 23 13
60 66 66 71 78 83 81 77 72 68 67 60 49 53 53 52 53 60 61 57 57 52 48 49 50 47 43 35 28 31 28 22 21 25 26 24 23 19 19 24 24 28 20
47 54 60 66 71 75 74 74 74 77 79 78 73 68 69 64 68 60 53 57 58 54 53 49 44 38 30 22 25 27 21 21 24 25 26 24 20 17 18 18 20 24 24
35 37 45 52 59 60 64 70 75 76 79 78 75 70 73 71 61 60 54 52 52 50 45 38 30 33 33 31 31 29 28 24 22 24 25 22 21 19 21 19 17 24 26
42 40 41 47 51 52 55 59 64 70 75 77 82 81 72 65 58 57 51 44 37 33 35 38 38 37 35 26 17 20 22 22 26 22 26 22 19 20 18 17 17 23 27
42 41 40 41 42 45 47 47 49 52 60 68 70 65 57 55 49 50 47 40 36 35 35 37 36 35 32 28 23 18 22 26 27 21 25 24 17 18 17 18 19 21 26
35 36 38 43 45 45 48 49 56 63 58 57 51 43 48 47 45 42 39 39 39 36 35 31 30 30 28 23 15 10 18 24 23 18 19 26 18 17 17 19 18 19 19
25 27 31 38 38 38 38 41 51 57 57 52 30 41 36 30 32 34 34 35 35 32 28 24 23 22 23 24 19 16 21 25 24 19 16 22 17 14 20 17 17 17 17
20 19 25 36 34 33 39 38 42 55 52 29 43 33 34 35 32 30 29 29 29 27 22 15 14 23 25 27 25 25 28 31 26 18 12 19 19 12 18 18 16 13 14
18 16 30 31 31 32 33 35 50 51 33 36 33 31 26 20 20 23 26 29 29 28 26 22 21 23 26 27 28 28 28 28 24 16 10 11 15 15 10 13 12 11 14
Wind_Direction_850mb
221 224 225 227 230 227 222 217 219 222 223 225 221 214 214 216 223 221 215 213 215 215 212 215 207 211 214 217 233 267 294 278 268 271 301 33 310 338 344 347 1 26 41
222 224 223 228 235 232 227 221 223 216 213 214 215 214 215 214 226 224 213 211 207 209 209 205 207 208 216 220 254 267 284 260 216 97 81 302 286 312 320 339 0 41 66
216 221 223 227 231 235 228 218 217 216 209 196 190 203 218 216 224 231 216 211 200 206 212 205 198 210 216 219 237 264 266 240 125 103 66 203 242 295 323 342 55 80 68
225 220 224 225 227 228 227 218 216 210 203 168 165 161 204 209 218 235 212 208 197 198 204 200 202 209 218 216 213 224 195 183 170 154 177 216 275 313 335 61 104 95 64
348 288 224 224 226 225 225 221 213 201 180 178 173 167 139 149 237 224 214 211 196 196 197 196 202 209 211 209 207 217 190 202 200 208 226 249 292 24 61 71 99 95 78
331 322 328 218 219 225 226 222 213 203 199 202 224 244 221 232 232 208 221 215 204 199 191 191 200 211 215 204 193 198 197 199 208 213 230 227 79 69 93 90 84 85 72
294 308 311 258 223 220 232 221 206 205 201 205 216 209 221 192 198 222 223 215 205 193 190 194 198 203 184 161 154 142 144 143 139 143 134 104 83 79 88 92 77 75 74
273 294 303 281 231 219 232 227 207 204 205 221 196 205 205 200 187 212 210 205 191 184 193 196 189 180 163 143 144 137 122 111 104 104 99 82 71 65 63 66 77 61 72
264 285 310 267 228 205 215 219 203 202 205 190 199 187 186 186 197 196 196 188 182 185 192 184 184 178 158 159 157 142 121 120 112 98 83 71 62 53 51 70 80 82 44
274 251 304 269 218 210 209 206 200 192 187 179 175 187 182 177 183 189 188 183 181 184 185 186 184 165 167 167 161 149 126 142 142 121 107 86 69 47 26 34 37 42 47
257 207 258 249 212 192 173 184 182 186 189 182 189 180 175 175 179 181 179 181 186 190 184 174 163 158 164 159 154 141 132 127 132 138 123 102 68 31 39 54 46 39 37
213 195 209 212 194 174 150 147 166 167 172 177 176 166 167 168 173 172 173 187 191 188 184 173 161 152 151 147 146 141 139 138 141 141 129 86 72 74 48 63 43 48 36
208 176 187 150 155 163 170 175 159 167 164 161 161 160 159 162 166 167 175 183 171 171 165 156 148 142 142 142 143 143 155 158 165 148 103 81 81 64 51 77 84 57 51
146 153 159 156 155 160 171 177 170 167 167 163 163 161 159 161 165 167 168 159 154 159 148 140 137 137 137 142 145 155 166 163 140 112 99 90 107 77 54 51 90 72 60
151 152 150 159 158 159 156 156 166 167 176 173 170 167 164 164 166 167 165 158 155 150 143 140 137 136 137 136 140 144 142 140 121 112 112 95 105 82 60 49 97 80 67
144 141 148 151 152 152 148 138 141 154 163 170 169 168 166 164 162 167 164 157 149 142 140 135 130 128 129 142 151 148 140 113 99 112 116 102 97 85 63 47 70 67 80
135 138 137 140 139 137 137 140 133 130 137 147 161 164 164 158 162 162 156 144 138 139 138 136 136 148 151 147 133 124 108 99 109 110 114 105 103 96 72 57 45 48 74
132 137 138 137 138 137 137 136 134 134 131 130 142 160 166 160 156 150 145 141 140 143 149 151 155 156 152 143 120 109 113 117 101 102 110 107 95 94 82 64 43 38 52
131 132 136 139 140 139 139 137 137 135 131 131 134 136 140 143 142 139 138 143 147 150 154 157 156 152 134 114 109 125 121 111 104 103 106 109 98 88 81 78 51 36 47
114 124 129 128 131 132 133 134 132 131 132 134 138 139 143 141 140 140 143 148 150 149 148 143 134 114 109 108 112 121 120 116 102 100 110 104 99 83 75 71 49 39 48
106 113 117 124 129 130 132 134 135 135 135 137 137 142 149 149 149 148 152 148 142 138 134 129 126 127 126 130 141 134 138 126 119 105 106 116 105 92 82 68 57 42 55
109 114 121 124 128 130 132 134 136 136 136 137 139 140 133 136 135 134 136 134 131 132 140 146 143 143 144 153 165 158 151 144 130 121 110 126 110 96 99 72 61 52 56
100 105 114 122 123 127 134 135 134 131 126 120 118 133 147 146 150 148 145 144 145 150 157 159 161 164 168 178 178 142 137 149 141 133 123 130 120 97 103 82 63 53 59
102 117 125 126 128 130 130 137 145 147 143 130 141 150 146 144 148 148 156 161 165 174 181 186 188 180 173 178 173 152 141 145 141 143 122 120 142 107 103 91 70 51 74
80 94 127 135 126 128 128 128 138 146 131 128 154 157 155 157 164 167 169 169 170 176 179 180 149 125 130 139 138 138 139 143 147 151 135 114 140 126 110 104 85 56 63
129 120 121 120 130 132 125 125 137 137 151 163 164 166 171 179 175 170 165 165 169 168 166 162 151 139 133 135 136 136 139 145 153 157 142 119 115 124 114 115 119 67 51